Location: Gwatt
(46.7204°N, 7.6223°E)
Time: 22:53:09
(UTC+00:00)

Tiros 1 despin weight - Pass Details

Date: 28 January 2021
Orbit: 593 x 642 km, 48.2° (Epoch: 08 March)

Event Time Altitude Azimuth Distance (km) Brightness Sun altitude
Rises 18:00:53 0° 286° (WNW) 2,862 ? -16.1°
Reaches altitude 10° 18:03:24 10° 276° (W) 1,948 ? -16.5°
Maximum altitude 18:07:17 30° 215° (SW) 1,078 ? -17.2°
Drops below altitude 10° 18:11:09 10° 154° (SSE) 1,922 ? -17.8°
Enters shadow 18:11:48 - 150° (SSE) 2,153 ? -17.9°
